Mardi 22 octobre 2019   -   semaine 43                    on fête: Elodie                    soleil  (-4 mn) lever du soleil 08:12:00 coucher du soleil 18:49:00                    lune Dernier croissant
Sélection

Sélection d'un SYNOP

   Synop:       

  Période à consulter:

Actuelle
Archive     

Relevé

Dernier relevé du SYNOP pour la période choisie

Conditions météo à la station de Vichy/Charmeil (4610N 00324E)    altitude 251m

Date du relevé22/10/2019 à 12:00
Visibilité14km
Vent4 km/h N
Température11.7 C
Température mini / 12h39.8 C
Humidité96.7 %
Point de rosée11.2 C
Pression absolue992.8 hPa
Pression relative1022.9 hPa
Variation pression-0.1 hPa stationnaire ou en hausse puis en baisse, puis en baisse plus rapide
Temps présentBruine faible et continue, non verglaçante.

24h

Historique de la période choisie

Certaines stations ne diffusent pas en continu, d'où l'absence possible de données à certaines heures. Le tableau ci-dessous récapitule l'historique des relevés de la station de Vichy/Charmeil.

Date - Heure Base des nuages Visibilité Nébulosité Vent - Secteur Température Humidité Point rosée Pression / Géopotentiel Précipitations Temps
22/10 12:00 14km 4 km/h N 11.7 C 96.7 % 11.2 C 1022.9 hPa
22/10 11:00 12km 2 km/h NNE 10.7 C 96.7 % 10.2 C 1023.5 hPa
22/10 10:00 11km 2 km/h N 10.1 C 98.0 % 9.8 C 1023.4 hPa
22/10 09:00 7km 2 km/h N 9.7 C 98.0 % 9.4 C 1023.2 hPa
22/10 08:00 18km 2 km/h ONO 9.5 C 98.0 % 9.2 C 1022.8 hPa 0.2 mm/12h
22/10 07:00 14km 0 km/h N 9.4 C 98.0 % 9.1 C 1022.3 hPa
22/10 06:00 17km 0 km/h N 9.4 C 96.7 % 8.9 C 1022.6 hPa
22/10 05:00 13km 0 km/h N 9.5 C 96.7 % 9.0 C 1022.5 hPa
22/10 04:00 20km 2 km/h ONO 9.6 C 96.7 % 9.1 C 1022.6 hPa
22/10 03:00 18km 0 km/h N 9.8 C 96.7 % 9.3 C 1023.0 hPa
22/10 02:00 20km 2 km/h NNE 9.9 C 94.1 % 9.0 C 1023.0 hPa traces/6h
22/10 01:00 20km 0 km/h N 10.1 C 92.9 % 9.0 C 1022.8 hPa
22/10 00:00 20km 4 km/h N 10.2 C 92.9 % 9.1 C 1022.7 hPa
21/10 23:00 20km 2 km/h N 10.6 C 88.0 % 8.7 C 1022.8 hPa
21/10 22:00 20km 4 km/h N 10.7 C 88.0 % 8.8 C 1022.7 hPa
21/10 21:00 20km 2 km/h N 10.6 C 89.2 % 8.9 C 1022.3 hPa
21/10 20:00 20km 4 km/h N 11.4 C 85.8 % 9.1 C 1021.7 hPa 0 mm/12h
21/10 19:00 20km 6 km/h N 12.4 C 83.0 % 9.6 C 1021.2 hPa
21/10 18:00 20km 6 km/h NNE 13.3 C 77.8 % 9.5 C 1020.9 hPa
21/10 17:00 20km 6 km/h NE 13.8 C 74.8 % 9.4 C 1020.6 hPa
21/10 16:00 20km 6 km/h NNE 14.1 C 76.9 % 10.1 C 1020.3 hPa
21/10 15:00 20km 6 km/h N 14.2 C 70.9 % 9.0 C 1020.4 hPa
21/10 14:00 20km 4 km/h NE 14.2 C 72.9 % 9.4 C 1020.4 hPa 0 mm/6h
21/10 13:00 20km 4 km/h NE 13.4 C 79.9 % 10.0 C 1020.1 hPa

Source: ogimet